Annapolis Naval Academy, MD

3:35 AM EDT on May 23, 2018 (GMT -0400)
Annapolis Naval Academy

Weather History for KNAK - November, 2011

Change the Weather History Date:

Saturday, November 19, 2011

  Actual Average (KBWI) Record (KBWI)
Temperature  
Mean Temperature 46 °F -  
Max Temperature 54 °F 55 °F 77 °F (1928)
Min Temperature 39 °F 34 °F 19 °F (2014)
Degree Days  
Heating Degree Days 18    
Moisture  
Dew Point 31 °F    
Average Humidity 53    
Maximum Humidity 80    
Minimum Humidity 32    
Precipitation  
Precipitation 0.00 in - - ()
Sea Level Pressure  
Sea Level Pressure 30.39 in    
Wind  
Wind Speed 7 mph (South)    
Max Wind Speed 13 mph    
Max Gust Speed 20 mph    
Visibility 10 miles    
Events      
Averages and records for this station are not official NWS values.
T = Trace of Precipitation, MM = Missing Value Source: NWS Daily Summary

Daily Weather History Graph

Daily Weather History Graph

Search for Another Location

Airport or City:

Astronomy

Nov. 19, 2011 Rise Set
Actual Time 6:52 AM EST 4:49 PM EST
Civil Twilight 6:24 AM EST 5:18 PM EST
Nautical Twilight 5:51 AM EST 5:50 PM EST
Astronomical Twilight 5:19 AM EST 6:22 PM EST
Moon 12:14 AM EST (11/19) 1:02 PM EST (11/19)
Length of Visible Light 10h 54m
Length of Day
9h 56m
Last Quarter, 38% of the Moon is Illuminated
Nov 19
Last Quarter
Nov 25
New
Dec 2
First Quarter
Dec 10
Full
Dec 17
Last Quarter

Hourly Weather History & Observations

Time (EST) Temp. Windchill Dew Point Humidity Pressure Visibility Wind Dir Wind Speed Gust Speed Precip Events Conditions
12:54 AM 39.9 °F 35.8 °F 21.9 °F 49% 30.44 in 10.0 mi South 5.8 mph - N/A   Clear
1:54 AM 39.9 °F 35.8 °F 24.1 °F 53% 30.44 in 10.0 mi South 5.8 mph - N/A   Clear
2:54 AM 41.0 °F 35.2 °F 24.1 °F 51% 30.44 in 10.0 mi South 9.2 mph - N/A   Clear
3:54 AM 41.0 °F 36.4 °F 24.1 °F 51% 30.44 in 10.0 mi South 6.9 mph - N/A   Clear
4:54 AM 39.9 °F 35.1 °F 25.0 °F 55% 30.44 in 10.0 mi South 6.9 mph - N/A   Clear
5:54 AM 39.9 °F 34.5 °F 25.0 °F 55% 30.45 in 10.0 mi South 8.1 mph - N/A   Clear
6:54 AM 39.0 °F 34.8 °F 25.0 °F 57% 30.45 in 10.0 mi South 5.8 mph - N/A   Clear
7:54 AM 41.0 °F 38.0 °F 25.0 °F 53% 30.47 in 10.0 mi South 4.6 mph - N/A   Clear
8:54 AM 45.0 °F 41.2 °F 25.0 °F 46% 30.47 in 10.0 mi South 6.9 mph - N/A   Clear
9:54 AM 48.0 °F - 24.1 °F 39% 30.47 in 10.0 mi South 12.7 mph 17.3 mph N/A   Clear
10:54 AM 50.0 °F - 24.1 °F 36% 30.45 in 10.0 mi South 11.5 mph 19.6 mph N/A   Clear
11:54 AM 52.0 °F - 23.0 °F 32% 30.42 in 10.0 mi South 9.2 mph - N/A   Clear
12:54 PM 54.0 °F - 25.0 °F 33% 30.39 in 10.0 mi South 11.5 mph - N/A   Clear
1:54 PM 54.0 °F - 28.0 °F 37% 30.36 in 10.0 mi SSE 12.7 mph 18.4 mph N/A   Clear
2:54 PM 53.1 °F - 36.0 °F 52% 30.35 in 10.0 mi SSE 9.2 mph - N/A   Clear
3:54 PM 54.0 °F - 35.1 °F 49% 30.33 in 10.0 mi South 12.7 mph - N/A   Clear
4:54 PM 51.1 °F - 39.9 °F 66% 30.32 in 10.0 mi South 8.1 mph - N/A   Clear
5:54 PM 51.1 °F - 45.0 °F 80% 30.32 in 10.0 mi South 4.6 mph - N/A   Clear
6:54 PM 50.0 °F - 37.9 °F 63% 30.32 in 10.0 mi South 5.8 mph - N/A   Clear
7:54 PM 51.1 °F - 37.0 °F 59% 30.31 in 10.0 mi South 5.8 mph - N/A   Clear
8:54 PM 51.1 °F - 37.9 °F 61% 30.32 in 10.0 mi SSW 4.6 mph - N/A   Clear
9:54 PM 51.1 °F - 39.0 °F 63% 30.30 in 10.0 mi South 4.6 mph - N/A   Clear
10:54 PM 50.0 °F - 39.9 °F 68% 30.29 in 10.0 mi Calm Calm - N/A   Clear
11:54 PM 50.0 °F - 41.0 °F 71% 30.28 in 10.0 mi SSE 4.6 mph - N/A   Clear